Tracking 31027 objects as of 19-Jul-2025
HD Live streaming from Space Station
objects crossing your sky now

SL-3 DEB

Track SL-3 DEB now!
10-day predictions


NORAD ID: 14229
Int'l Code: 1983-075D
Perigee: 529.5 km
Apogee: 570.5 km
Inclination: 97.9 °
Period: 95.5 minutes
Semi major axis: 6921 km
RCS: 0.0149 m2 (small)
Launch date: July 24, 1983
Source: Commonwealth of Independent States (former USSR) (CIS)
Launch site: TYURATAM MISSILE AND SPACE COMPLEX (TTMTR)

Note: This is SATELLITE DEBRIS
Your satellite tracking list
SL-8 R/B
Track 1 satellite(s)




NASA's NSSDC Master Catalog

Two Line Element Set (TLE):
1 14229U 83075D   25199.53562056  .00002256  00000-0  15043-3 0  9990
2 14229  97.8612 182.1312 0029622  25.8055  95.9209 15.07809227281115
Source of the keplerian elements: AFSPC